Cloud_Cover
92 10 0 0 5 12 100 100 100 100 46 100 100 100 100 100 100 100 99 78 99 100 100 100 100 100 100 100 100 100 100 60
100 90 6 5 5 5 65 100 100 100 100 100 100 100 100 100 100 100 100 100 100 100 100 100 100 100 100 100 100 100 100 88
12 100 100 99 59 32 92 100 100 100 100 100 100 100 100 100 93 61 82 99 100 100 100 100 100 100 100 100 100 100 100 100
100 100 100 100 60 93 100 100 100 100 100 100 100 100 100 100 86 100 100 100 100 100 100 100 100 100 100 100 100 100 100 100
70 99 100 100 100 99 100 100 100 100 100 100 100 100 100 100 98 99 100 100 74 100 100 100 100 100 100 100 100 100 100 100
91 50 5 72 100 100 100 100 100 100 100 100 100 100 100 100 96 64 100 100 97 100 100 100 100 100 100 100 99 100 100 100
96 100 99 90 100 100 100 100 100 100 100 100 100 100 100 100 98 100 84 87 88 100 100 100 100 100 100 100 100 100 100 100
0 0 44 98 100 100 100 100 100 100 100 100 100 100 100 100 100 100 91 100 100 100 100 100 100 100 100 100 100 100 100 100
5 4 3 1 100 100 100 100 100 100 100 100 100 100 100 100 100 99 100 100 100 100 100 100 100 100 100 100 98 100 100 100
61 99 6 0 78 85 100 100 100 100 100 100 100 100 100 100 100 100 100 100 100 100 100 100 100 100 100 100 100 100 100 100
0 2 20 5 6 76 100 100 100 100 100 100 100 100 100 100 100 100 100 100 100 100 100 100 100 100 100 100 100 100 100 100
0 0 3 34 53 100 100 100 100 100 100 100 100 100 100 100 100 100 100 100 100 100 100 100 100 100 100 100 100 100 100 100
5 5 5 97 62 31 100 100 100 100 100 100 100 100 100 100 100 99 100 94 99 100 100 100 100 100 100 100 100 100 84 63
20 45 5 14 40 54 32 100 95 100 100 100 100 100 100 100 100 99 100 100 100 100 100 100 100 100 100 93 92 75 67 95
0 0 7 45 70 87 38 100 100 100 100 100 100 100 100 100 100 100 100 100 100 100 100 100 100 100 100 100 95 100 91 90
0 0 0 0 2 100 97 100 100 100 100 100 100 100 100 100 100 100 100 100 100 100 100 100 100 85 91 98 92 84 100 100
0 0 0 0 4 89 100 100 100 100 100 100 100 100 100 100 100 100 100 100 100 100 100 98 94 100 100 100 100 100 100 100
0 0 0 0 8 98 100 100 100 100 100 100 100 100 100 100 100 100 100 100 100 100 100 100 100 100 100 100 100 100 100 100
0 0 0 2 16 100 100 100 100 100 100 100 100 100 100 100 100 100 100 100 100 100 100 100 100 100 100 100 100 100 100 93